Volver al catálogo

STARLINK-31001

ActivoComunicacionesVLEO
NORAD 58527·PAYLOAD·🇺🇸 United States

Lanzado Dec 7, 2023 desde Cape Canaveral Space Force Station

Loading…

Próximos Pases (próximas 24 horas)

TLE

ActualizadoSource: CelesTrak SupGP

Época: Sep 15, 2026, 03:26 UTC

1 58527C 23191V   26258.14354167  .00037731  00000+0  13669-2 0  2582
2 58527  43.0017 113.4858 0001401 269.2880 136.0693 15.27552315    10

Sigue STARLINK-31001 en tiempo real con AllMySat

Download on the App Store